Regional Weather Roundup
Issued by NWS Charleston, SC

Current Version | Previous Version | Text Only | Print | Product List | Glossary Off
Versions: 1 2 3 4 5 6 7 8 9 10 11 12 13 14 15 16 17 18 19 20 21 22 23 24 25 26 27 28 29 30 31 32 33 34 35 36 37 38 39 40 41 42 43 44 45 46 47 48 49 50
000 ASUS42 KCHS 310325 RWRCHS REGIONAL WEATHER ROUNDUP NATIONAL WEATHER SERVICE CHARLESTON SC 1100 PM EDT THU OCT 30 2014 NOTE: "FAIR" INDICATES FEW OR NO CLOUDS BELOW 12,000 FEET WITH NO SIGNIFICANT WEATHER AND/OR OBSTRUCTIONS TO VISIBILITY. NOT ALL STATIONS ARE QUALITY CONTROLLED BY THE NATIONAL WEATHER SERVICE. USE DATA WITH CAUTION...ESPECIALLY DEWPOINT OBSERVATIONS. SCZ027-030-031-034>040-042>050-310400- ...SOUTH CAROLINA... CITY SKY/WX TMP DP RH WIND PRES REMARKS N CHARLESTON PTCLDY 57 54 89 CALM 29.94S WATERFRONT PRK N/A 63 N/A N/A E7 N/A FORT JOHNSON NOT AVBL JOHNS ISLAND CLEAR 61 61 100 CALM 29.93F PINOPOLIS NOT AVBL MONCKS CORNER FAIR 54 54 100 CALM 29.95S FOG SUMMERVILLE FAIR 54 54 100 CALM 29.96S BEAUFORT MCAS PTCLDY 63 57 81 CALM 29.90R BEAUFORT ARPT FAIR 61 57 88 N6 29.93S HILTON HEAD IS N/A 63 59 88 N5 29.94F GEORGETOWN NOT AVBL WALTERBORO CLEAR 52 N/A N/A CALM 29.95F ORANGEBURG PTCLDY 54 49 83 CALM 29.96S BARNWELL FAIR 52 48 87 CALM 29.96S AIKEN FAIR 48 45 87 CALM 29.99S MANNING FAIR 52 N/A N/A CALM 29.96R KINGSTREE NOT AVBL COLUMBIA PTCLDY 50 45 83 SW3 29.96S SUMTER CLEAR 53 45 74 NE5 29.95S FLORENCE CLEAR 55 47 74 NE6 29.96S MYRTLE BEACH PTCLDY 59 50 72 NE8 29.95S N MYRTLE BEACH CLEAR 56 51 84 N6 29.95S $$ GAZ063-065-086>088-099>101-113>116-118-119-134-136>141-150-310400- ...GEORGIA... CITY SKY/WX TMP DP RH WIND PRES REMARKS SAVANNAH ARPT PTCLDY 63 58 83 NE6 29.94S HUNTER AAF CLEAR 63 59 87 E3 29.91S FORT STEWART CLEAR 56 54 92 CALM 29.92S STATESBORO NOT AVBL SYLVANIA CLEAR 58 57 96 CALM 29.95S CLAXTON FAIR 54 54 100 CALM 29.94S THOMSON CLEAR 47 47 100 CALM 30.01S AUGUSTA-BUSH CLEAR 49 45 86 CALM 29.96S AUGUSTA-DANIEL CLEAR 59 42 53 NW7 29.96S SWAINSBORO FAIR 54 48 82 MISG 29.96S VIDALIA CLEAR 55 50 82 N3 29.95S ALMA CLEAR 55 50 83 NW5 29.94R WAYCROSS CLEAR 58 55 89 CALM 29.93S JESUP FAIR 59 57 94 CALM 29.93S BRUNSWICK CLEAR 63 61 94 CALM 29.93S SAINT SIMONS PTCLDY 65 62 90 N5 29.91S $$ SCZ027-028-034-036>038-045-046-048>050-GAZ119-141-310400- ...LAKE AND SUPPLEMENTAL COASTAL OBSERVATIONS... STATION/POSITION TIME TEMP WIND PRES WAVE SWELL AIR SEA DIR/SP/G HT/PER HT/PER/DIR (UTC) (F) (DEG/KT/KT) (MB) (FT/S) (FT/S/D) UPR LAKE MARION NOT AVBL WINYAH BAY 0300 60 360/ 5 1013.0S LAKE MURRAY 0200 59 CALM / 2 1014.2R ACE BASIN NERRS 0300 57 CALM 1013.0S FORT PULASKI NOT AVBL SAPELO ISLAND NOT AVBL $$ ANZ835-935-AMZ111-154-330-350-352-354-374-450-454-472-310400- ...C-MAN AND BUOY OBSERVATIONS... STATION/POSITION TIME TEMP WIND PRES WAVE SWELL AIR SEA DIR/SP/G HT/PER HT/PER/DIR (UTC) (F) (DEG/KT/KT) (MB) (FT/S) (FT/S/D) FOLLY BEACH CMAN 0300 65 10/ 10/ 12 1013.9F BUOY 41004 0300 70 77 30/ 14/ 16 1012.3R 4/ 6 2/ 7 BUOY 41008 0300 70 74 50/ 10/ 12 1012.8F 2/ 7 2/150/ 7 5E ST. MARYS GA 0300 76 N/A 2/ 3 FRYING PAN BUOY 0300 67 73 50/ 17/ 21 1013.5R 5/ 6 BUOY 41025 0300 65 20/ 19/ 25 1013.6F 4/ 5 2/ 50/ 8 CAPE LOOKOUT NC 0300 61 20/ 13/ 16 1014.1F BUOY 41002 0223 75 78 170/ 6/ 8 1011.9S 3/ 7 3/120/ 7 BUOY 41010 0300 78 82 200/ 2/ 4 1012.2F 3/ 8 3/130/ 8 BUOY 41012 NOT AVBL ST AUGUSTINE FL 0300 65 260/ 2/ 3 1013.5F CAPERS NEARSHORE 0200 65 10/ 10/ 12 N/A FRIPP NEARSHORE NOT AVBL $$

USA.gov is the U.S. government's official web portal to all federal, state and local government web resources and services.